TimeCST,TemperatureF,Dew PointF,Humidity,Sea Level PressureIn,VisibilityMPH,Wind Direction,Wind SpeedMPH,Gust SpeedMPH,PrecipitationIn,Events,Conditions,WindDirDegrees,DateUTC
12:54 AM,-15.0,-24.0,64,30.38,6.0,NW,20.7,32.2,N/A,,Haze,310,2014-01-06 06:54:00
1:42 AM,-16.1,-26.0,61,30.30,10.0,NW,19.6,28.8,N/A,,Scattered Clouds,310,2014-01-06 07:42:00
1:54 AM,-16.1,-26.0,61,30.39,10.0,NW,18.4,26.5,N/A,,Scattered Clouds,310,2014-01-06 07:54:00
2:17 AM,-17.0,-26.0,64,30.31,10.0,NW,18.4,26.5,N/A,,Mostly Cloudy,310,2014-01-06 08:17:00
2:54 AM,-17.0,-26.0,64,30.39,10.0,NW,18.4,-,N/A,,Mostly Cloudy,310,2014-01-06 08:54:00
3:02 AM,-17.0,-26.0,64,30.31,10.0,NW,12.7,-,N/A,,Scattered Clouds,310,2014-01-06 09:02:00
3:10 AM,-17.0,-26.0,64,30.31,9.0,NW,13.8,24.2,N/A,,Mostly Cloudy,310,2014-01-06 09:10:00
3:54 AM,-17.0,-27.9,58,30.39,10.0,NW,17.3,26.5,N/A,,Scattered Clouds,310,2014-01-06 09:54:00
4:45 AM,-18.0,-27.0,64,30.30,10.0,WNW,17.3,29.9,N/A,,Mostly Cloudy,300,2014-01-06 10:45:00
4:54 AM,-18.0,-27.0,64,30.39,10.0,WNW,15.0,26.5,N/A,,Mostly Cloudy,300,2014-01-06 10:54:00
5:40 AM,-18.9,-27.9,63,30.31,10.0,NW,17.3,26.5,N/A,,Scattered Clouds,310,2014-01-06 11:40:00
5:54 AM,-18.9,-27.9,63,30.40,10.0,NW,17.3,25.3,N/A,,Clear,310,2014-01-06 11:54:00
6:54 AM,-18.9,-27.9,63,30.40,10.0,NW,16.1,25.3,N/A,,Clear,310,2014-01-06 12:54:00
7:54 AM,-18.9,-27.9,63,30.42,10.0,WNW,9.2,20.7,N/A,,Clear,290,2014-01-06 13:54:00
8:54 AM,-18.0,-27.9,61,30.43,10.0,WNW,15.0,-,N/A,,Clear,290,2014-01-06 14:54:00
9:54 AM,-17.0,-27.0,60,30.43,10.0,WNW,19.6,29.9,N/A,,Clear,300,2014-01-06 15:54:00
10:54 AM,-15.0,-25.1,61,30.43,10.0,WNW,19.6,27.6,N/A,,Partly Cloudy,300,2014-01-06 16:54:00
11:54 AM,-13.0,-23.1,61,30.40,10.0,WNW,18.4,24.2,N/A,,Partly Cloudy,290,2014-01-06 17:54:00
12:26 PM,-11.9,-22.0,61,30.29,10.0,WNW,17.3,25.3,N/A,,Mostly Cloudy,290,2014-01-06 18:26:00
12:54 PM,-11.0,-22.0,58,30.38,10.0,WNW,18.4,26.5,N/A,,Mostly Cloudy,300,2014-01-06 18:54:00
1:54 PM,-9.9,-20.0,61,30.38,5.0,West,21.9,-,N/A,,Haze,270,2014-01-06 19:54:00
2:54 PM,-9.9,-18.9,65,30.38,5.0,WNW,16.1,23.0,N/A,,Haze,290,2014-01-06 20:54:00
3:45 PM,-9.0,-18.9,62,30.29,10.0,WNW,16.1,24.2,N/A,,Scattered Clouds,290,2014-01-06 21:45:00
3:54 PM,-9.0,-18.0,65,30.39,9.0,West,15.0,21.9,N/A,,Scattered Clouds,280,2014-01-06 21:54:00
4:54 PM,-9.0,-18.0,65,30.38,10.0,WNW,10.4,-,N/A,,Clear,290,2014-01-06 22:54:00
5:54 PM,-9.0,-18.0,65,30.38,10.0,WNW,12.7,-,N/A,,Clear,290,2014-01-06 23:54:00
6:54 PM,-9.0,-18.0,65,30.38,10.0,West,9.2,-,N/A,,Clear,280,2014-01-07 00:54:00
7:54 PM,-9.0,-18.0,65,30.37,10.0,West,12.7,-,N/A,,Clear,280,2014-01-07 01:54:00
8:54 PM,-9.0,-18.0,65,30.37,10.0,West,9.2,-,N/A,,Clear,280,2014-01-07 02:54:00
9:54 PM,-9.0,-18.0,65,30.36,10.0,West,10.4,-,N/A,,Clear,280,2014-01-07 03:54:00
10:54 PM,-9.9,-18.0,68,30.35,10.0,WNW,9.2,-,N/A,,Clear,290,2014-01-07 04:54:00
11:54 PM,-9.9,-18.0,68,30.34,10.0,WNW,8.1,-,N/A,,Clear,290,2014-01-07 05:54:00